UAL353 KEWR-KLAX

Flight info

Callsign UAL353
Flight time N/A
Altitude 38000
Route EWR5 NEWEL J60 DANNR RAV J64 FWA EDENS WELKY Q90 DNERO ANJLL4
Aircraft B78X/H-SDE1E2E3FGHIJ2J3J4J5M1RWXY/LB1D1

Departure

Time N/A
Airport Newark Liberty International Airport (KEWR)

Arrival

Time 2026-04-21 03:33
Airport Los Angeles International Airport (KLAX)
Time Latitude Longitude Altitude Speed Heading
2026-04-21 02:44 34.71673 -112.32693 42117 ft 449 kts 262°
2026-04-21 02:44 34.70979 -112.40233 42121 ft 449 kts 262°
2026-04-21 02:45 34.70279 -112.47772 42129 ft 449 kts 261°
2026-04-21 02:45 34.69409 -112.55229 42118 ft 449 kts 261°
2026-04-21 02:46 34.68544 -112.62750 42086 ft 450 kts 260°
2026-04-21 02:46 34.67649 -112.70272 42055 ft 450 kts 260°
2026-04-21 02:47 34.66765 -112.77794 42012 ft 450 kts 260°
2026-04-21 02:47 34.65868 -112.85314 41966 ft 449 kts 260°
2026-04-21 02:48 34.64972 -112.92820 41964 ft 449 kts 260°
2026-04-21 02:48 34.64069 -113.00325 41962 ft 449 kts 260°
2026-04-21 02:49 34.63164 -113.07811 41957 ft 448 kts 260°
2026-04-21 02:49 34.62256 -113.15291 41944 ft 448 kts 260°
2026-04-21 02:50 34.61343 -113.22767 41944 ft 447 kts 260°
2026-04-21 02:50 34.60426 -113.30230 41927 ft 447 kts 260°
2026-04-21 02:51 34.59506 -113.37691 41922 ft 447 kts 260°
2026-04-21 02:51 34.58581 -113.45144 41918 ft 447 kts 259°
2026-04-21 02:52 34.57653 -113.52594 41911 ft 446 kts 259°
2026-04-21 02:52 34.56721 -113.60028 41909 ft 445 kts 259°
2026-04-21 02:53 34.55864 -113.67464 41823 ft 446 kts 261°
2026-04-21 02:53 34.55438 -113.71207 41411 ft 448 kts 260°
2026-04-21 02:53 34.55004 -113.74936 41025 ft 445 kts 260°
2026-04-21 02:53 34.54596 -113.78647 40643 ft 443 kts 261°
2026-04-21 02:54 34.54195 -113.82346 40272 ft 442 kts 261°
2026-04-21 02:54 34.53782 -113.86042 39921 ft 442 kts 260°
2026-04-21 02:54 34.53364 -113.89720 39886 ft 438 kts 260°
2026-04-21 02:55 34.52541 -113.97048 39885 ft 446 kts 260°
2026-04-21 02:55 34.51693 -114.04536 39894 ft 449 kts 259°
2026-04-21 02:56 34.50243 -114.11864 39889 ft 448 kts 254°
2026-04-21 02:56 34.47928 -114.22846 39900 ft 448 kts 254°
2026-04-21 02:57 34.46381 -114.30140 39902 ft 446 kts 254°
2026-04-21 02:57 34.44832 -114.37409 39899 ft 446 kts 253°
2026-04-21 02:58 34.43276 -114.44693 39899 ft 447 kts 253°
2026-04-21 02:58 34.41716 -114.51973 39888 ft 447 kts 253°
2026-04-21 02:59 34.40148 -114.59265 39880 ft 448 kts 253°
2026-04-21 02:59 34.38575 -114.66563 39876 ft 448 kts 253°
2026-04-21 03:00 34.37264 -114.72622 39869 ft 447 kts 253°
2026-04-21 03:00 34.35682 -114.79915 39869 ft 449 kts 253°
2026-04-21 03:01 34.34092 -114.87223 39873 ft 449 kts 253°
2026-04-21 03:01 34.32496 -114.94536 39873 ft 449 kts 253°
2026-04-21 03:02 34.30896 -115.01827 39879 ft 448 kts 253°
2026-04-21 03:02 34.29298 -115.09099 39874 ft 446 kts 253°
2026-04-21 03:03 34.27699 -115.16344 39872 ft 447 kts 253°
2026-04-21 03:03 34.26086 -115.23647 39882 ft 451 kts 253°
2026-04-21 03:04 34.24547 -115.30975 39881 ft 449 kts 253°
2026-04-21 03:04 34.22981 -115.38279 39885 ft 449 kts 253°
2026-04-21 03:05 34.21421 -115.45573 39887 ft 448 kts 253°
2026-04-21 03:05 34.20648 -115.49192 39876 ft 435 kts 253°
2026-04-21 03:05 34.19910 -115.52631 39863 ft 416 kts 252°
2026-04-21 03:06 34.19192 -115.55952 39867 ft 402 kts 252°
2026-04-21 03:06 34.18498 -115.59167 39869 ft 390 kts 252°
2026-04-21 03:06 34.17148 -115.65414 39883 ft 385 kts 252°
2026-04-21 03:07 34.16113 -115.71865 39902 ft 398 kts 260°
2026-04-21 03:07 34.15464 -115.78490 39913 ft 400 kts 259°
2026-04-21 03:08 34.14824 -115.85158 39920 ft 399 kts 259°
2026-04-21 03:08 34.14502 -115.88484 39756 ft 399 kts 259°
2026-04-21 03:08 34.14176 -115.91818 39162 ft 402 kts 259°
2026-04-21 03:09 34.13846 -115.95181 38585 ft 404 kts 259°
2026-04-21 03:09 34.13517 -115.98552 37965 ft 405 kts 259°
2026-04-21 03:09 34.13188 -116.01922 37376 ft 404 kts 259°
2026-04-21 03:09 34.12858 -116.05298 36785 ft 404 kts 259°
2026-04-21 03:10 34.12527 -116.08672 36166 ft 405 kts 260°
2026-04-21 03:10 34.12194 -116.12055 35529 ft 406 kts 260°
2026-04-21 03:10 34.11858 -116.15448 34883 ft 408 kts 260°
2026-04-21 03:10 34.11521 -116.18852 34201 ft 410 kts 261°
2026-04-21 03:11 34.11184 -116.22262 33468 ft 406 kts 260°
2026-04-21 03:11 34.10847 -116.25652 32761 ft 409 kts 260°
2026-04-21 03:11 34.10501 -116.29093 32069 ft 419 kts 261°
2026-04-21 03:11 34.10144 -116.32606 31691 ft 422 kts 260°
2026-04-21 03:12 34.09761 -116.36154 30899 ft 425 kts 260°
2026-04-21 03:12 34.09375 -116.39683 30398 ft 422 kts 260°
2026-04-21 03:12 34.08999 -116.43203 29862 ft 424 kts 260°
2026-04-21 03:12 34.08626 -116.46730 29304 ft 423 kts 260°
2026-04-21 03:13 34.08248 -116.50238 28779 ft 421 kts 260°
2026-04-21 03:13 34.07870 -116.53724 28250 ft 418 kts 260°
2026-04-21 03:13 34.07494 -116.57188 27737 ft 415 kts 260°
2026-04-21 03:13 34.07173 -116.60584 27235 ft 411 kts 262°
2026-04-21 03:14 34.06864 -116.63994 26730 ft 407 kts 260°
2026-04-21 03:14 34.06523 -116.67365 26222 ft 403 kts 260°
2026-04-21 03:14 34.06205 -116.70713 25726 ft 400 kts 261°
2026-04-21 03:14 34.05908 -116.74033 25232 ft 396 kts 261°
2026-04-21 03:15 34.05606 -116.77317 24751 ft 393 kts 260°
2026-04-21 03:15 34.05295 -116.80582 24273 ft 390 kts 260°
2026-04-21 03:15 34.04987 -116.83819 23811 ft 387 kts 260°
2026-04-21 03:15 34.04685 -116.87039 23307 ft 384 kts 260°
2026-04-21 03:16 34.04331 -116.90207 22832 ft 377 kts 257°
2026-04-21 03:16 34.03916 -116.93317 22357 ft 375 kts 258°
2026-04-21 03:16 34.03536 -116.96418 21909 ft 372 kts 258°
2026-04-21 03:16 34.03153 -116.99443 21438 ft 355 kts 257°
2026-04-21 03:17 34.02775 -117.02315 21013 ft 338 kts 257°
2026-04-21 03:17 34.02414 -117.05093 20608 ft 333 kts 257°
2026-04-21 03:17 34.02098 -117.07844 20200 ft 329 kts 258°
2026-04-21 03:17 34.01791 -117.10559 19785 ft 325 kts 258°
2026-04-21 03:18 34.01475 -117.13213 19403 ft 323 kts 257°
2026-04-21 03:18 34.01153 -117.15876 19010 ft 321 kts 257°
2026-04-21 03:18 34.00835 -117.18534 18616 ft 319 kts 257°
2026-04-21 03:18 34.00522 -117.21176 18193 ft 317 kts 257°
2026-04-21 03:19 34.00209 -117.23796 17765 ft 315 kts 257°
2026-04-21 03:19 33.99898 -117.26394 17346 ft 310 kts 257°
2026-04-21 03:19 33.99588 -117.28963 16960 ft 310 kts 257°
2026-04-21 03:19 33.99280 -117.31526 16574 ft 308 kts 258°
2026-04-21 03:20 33.98980 -117.34080 16182 ft 307 kts 258°
2026-04-21 03:20 33.98686 -117.36618 15809 ft 305 kts 258°
2026-04-21 03:20 33.98390 -117.39139 15428 ft 303 kts 258°
2026-04-21 03:20 33.98093 -117.41645 15047 ft 301 kts 258°
2026-04-21 03:21 33.97799 -117.44134 14674 ft 299 kts 258°
2026-04-21 03:21 33.97507 -117.46604 14301 ft 297 kts 258°
2026-04-21 03:21 33.97340 -117.49040 14001 ft 296 kts 272°
2026-04-21 03:21 33.97698 -117.51490 13760 ft 301 kts 277°
2026-04-21 03:22 33.98133 -117.53969 13303 ft 302 kts 278°
2026-04-21 03:22 33.98591 -117.56425 12914 ft 299 kts 278°
2026-04-21 03:22 33.99028 -117.58867 12543 ft 298 kts 277°
2026-04-21 03:22 33.99453 -117.61304 12164 ft 297 kts 277°
2026-04-21 03:23 33.99880 -117.63738 11786 ft 297 kts 278°
2026-04-21 03:23 34.00311 -117.66161 11399 ft 295 kts 278°
2026-04-21 03:23 34.00629 -117.68584 11021 ft 289 kts 264°
2026-04-21 03:23 34.00403 -117.70967 10661 ft 287 kts 259°
2026-04-21 03:24 34.00189 -117.73361 10288 ft 287 kts 260°
2026-04-21 03:24 33.99969 -117.75746 9926 ft 286 kts 259°
2026-04-21 03:24 33.99734 -117.78123 9539 ft 284 kts 259°
2026-04-21 03:24 33.99497 -117.80481 9171 ft 284 kts 259°
2026-04-21 03:25 33.99266 -117.82838 8791 ft 283 kts 260°
2026-04-21 03:25 33.99040 -117.85180 8445 ft 280 kts 260°
2026-04-21 03:25 33.98814 -117.87512 8079 ft 280 kts 260°
2026-04-21 03:25 33.98588 -117.89832 7706 ft 278 kts 260°
2026-04-21 03:26 33.98361 -117.92141 7351 ft 277 kts 260°
2026-04-21 03:26 33.98134 -117.94441 6974 ft 274 kts 261°
2026-04-21 03:26 33.97914 -117.96687 6644 ft 267 kts 261°
2026-04-21 03:26 33.97696 -117.98886 6299 ft 263 kts 261°
2026-04-21 03:27 33.97482 -118.01054 5938 ft 258 kts 261°
2026-04-21 03:27 33.97273 -118.03168 5607 ft 247 kts 261°
2026-04-21 03:27 33.97084 -118.05145 5297 ft 233 kts 262°
2026-04-21 03:27 33.96908 -118.07094 5003 ft 232 kts 261°
2026-04-21 03:28 33.96717 -118.09009 4699 ft 229 kts 262°
2026-04-21 03:28 33.96525 -118.10900 4408 ft 226 kts 262°
2026-04-21 03:28 33.96333 -118.12774 4205 ft 225 kts 262°
2026-04-21 03:28 33.96138 -118.14677 3930 ft 230 kts 262°
2026-04-21 03:29 33.95944 -118.16579 3626 ft 227 kts 262°
2026-04-21 03:29 33.95753 -118.18451 3350 ft 224 kts 262°
2026-04-21 03:29 33.95564 -118.20303 3055 ft 222 kts 263°
2026-04-21 03:29 33.95377 -118.22134 2763 ft 217 kts 263°
2026-04-21 03:30 33.95201 -118.23864 2488 ft 197 kts 263°
2026-04-21 03:30 33.95043 -118.25420 2228 ft 179 kts 263°
2026-04-21 03:30 33.94895 -118.26871 2002 ft 175 kts 263°
2026-04-21 03:30 33.94751 -118.28293 1759 ft 164 kts 263°
2026-04-21 03:31 33.94622 -118.29586 1554 ft 147 kts 262°
2026-04-21 03:31 33.94501 -118.30763 1359 ft 138 kts 262°
2026-04-21 03:31 33.94383 -118.31911 1167 ft 140 kts 263°
2026-04-21 03:31 33.94265 -118.33067 980 ft 137 kts 263°
2026-04-21 03:32 33.94151 -118.34205 804 ft 137 kts 263°
2026-04-21 03:32 33.94030 -118.35359 618 ft 139 kts 263°
2026-04-21 03:32 33.93914 -118.36506 427 ft 138 kts 264°
2026-04-21 03:32 33.93799 -118.37661 277 ft 136 kts 263°
2026-04-21 03:33 33.93685 -118.38774 136 ft 128 kts 263°
2026-04-21 03:33 33.93598 -118.39651 127 ft 81 kts 263°
2026-04-21 03:33 33.93544 -118.40164 131 ft 47 kts 264°
2026-04-21 03:33 33.93537 -118.40427 126 ft 23 kts 281°
2026-04-21 03:34 33.93575 -118.40583 127 ft 18 kts 291°
2026-04-21 03:34 33.93596 -118.40718 127 ft 15 kts 265°
2026-04-21 03:34 33.93603 -118.40839 129 ft 14 kts 289°
2026-04-21 03:34 33.93652 -118.40892 126 ft 9 kts 341°
2026-04-21 03:35 33.93718 -118.40904 128 ft 10 kts 353°
2026-04-21 03:35 33.93765 -118.40908 128 ft 3 kts 11°
2026-04-21 03:35 33.93780 -118.40889 129 ft 6 kts 58°
2026-04-21 03:35 33.93794 -118.40818 127 ft 12 kts 83°
2026-04-21 03:36 33.93806 -118.40705 131 ft 15 kts 83°